View from above orbital plane
|
View from above satellite
|
Ground track
|
The orbit data is extracted from the following two-line orbital elements,
1 446U 62060A 21023.77198182 -.00000112 00000-0 25884-4 0 9995
2 446 50.1430 276.7773 0070107 287.2498 116.1869 13.35276192840859
Epoch (UTC): | 23 January 2021 18:31:39 |
Eccentricity: | 0.0070107 |
inclination: | 50.1430° |
perigee height: | 1074 km |
apogee height: | 1179 km |
right ascension of ascending node: | 276.7773° |
argument of perigee: | 287.2498° |
revolutions per day: | 13.35276192 |
mean anomaly at epoch: | 116.1869° |
orbit number at epoch: | 84085 |
The dashed part of the orbit path shows where the satellite is in the earth's shadow,
|
|